Butler, PA

11:20 AM EST on December 12, 2019 (GMT -0500)
Butler County-Scholter

Weather History for KBTP - June, 2019

Change the Weather History Date:

Friday, June 14, 2019

  Actual Average Record
Temperature  
Mean Temperature 60 °F -  
Max Temperature 70 °F 74 °F 91 °F (1984)
Min Temperature 51 °F 55 °F 33 °F (1978)
Degree Days  
Heating Degree Days 4    
Growing Degree Days 10 (Base 50)    
Moisture  
Dew Point 48 °F    
Average Humidity 76    
Maximum Humidity 100    
Minimum Humidity 44    
Precipitation  
Precipitation 0.04 in - - ()
Sea Level Pressure  
Sea Level Pressure 30.00 in    
Wind  
Wind Speed 10 mph (WSW)    
Max Wind Speed 15 mph    
Max Gust Speed 24 mph    
Visibility 10 miles    
Events Rain    
Averages and records for this station are not official NWS values.
T = Trace of Precipitation, MM = Missing Value Source: NWS Daily Summary

Daily Weather History Graph

Daily Weather History Graph

Search for Another Location

Airport or City:

Astronomy

Jun. 14, 2019 Rise Set
Actual Time 5:47 AM EDT 8:52 PM EDT
Civil Twilight 5:14 AM EDT 9:25 PM EDT
Nautical Twilight 4:31 AM EDT 10:08 PM EDT
Astronomical Twilight 3:41 AM EDT 10:58 PM EDT
Moon 6:11 PM EDT (6/14) 4:06 AM EDT (6/14)
Length of Visible Light 16h 11m
Length of Day
15h 04m
Waxing Gibbous, 92% of the Moon is Illuminated
Jun 14
Waxing Gibbous
Jun 17
Full
Jun 25
Last Quarter
Jul 2
New
Jul 9
First Quarter

Hourly Weather History & Observations

Time (EDT) Temp. Dew Point Humidity Pressure Visibility Wind Dir Wind Speed Gust Speed Precip Events Conditions
12:12 AM 51.8 °F 50.0 °F 94% 29.81 in 10.0 mi SW 11.5 mph 19.6 mph N/A   Overcast
12:56 AM 52.0 °F 50.0 °F 93% 29.83 in 10.0 mi WSW 12.7 mph - 0.00 in Rain Light Rain
1:05 AM 51.8 °F 51.8 °F 100% 29.81 in 9.0 mi WSW 9.2 mph - 0.00 in Rain Light Rain
1:56 AM 52.0 °F 51.1 °F 97% 29.86 in 10.0 mi West 8.1 mph - 0.01 in Rain Light Rain
2:52 AM 51.8 °F 51.8 °F 100% 29.87 in 10.0 mi West 8.1 mph - 0.00 in   Overcast
2:56 AM 52.0 °F 51.1 °F 97% 29.90 in 10.0 mi West 10.4 mph - 0.00 in Rain Light Rain
3:05 AM 51.8 °F 51.8 °F 100% 29.88 in 6.0 mi West 10.4 mph - 0.00 in Rain Light Rain
3:40 AM 51.8 °F 51.8 °F 100% 29.90 in 10.0 mi West 9.2 mph - 0.03 in   Overcast
3:48 AM 51.8 °F 50.0 °F 94% 29.90 in 10.0 mi West 11.5 mph 17.3 mph 0.03 in   Overcast
3:56 AM 52.0 °F 50.0 °F 93% 29.92 in 10.0 mi West 12.7 mph 19.6 mph 0.03 in   Overcast
4:05 AM 51.8 °F 50.0 °F 94% 29.91 in 10.0 mi West 11.5 mph 21.9 mph N/A   Overcast
4:56 AM 51.1 °F 48.0 °F 89% 29.96 in 10.0 mi West 8.1 mph - N/A   Overcast
5:05 AM 51.8 °F 48.2 °F 88% 29.95 in 10.0 mi West 8.1 mph - N/A   Overcast
5:53 AM 51.8 °F 48.2 °F 88% 29.98 in 10.0 mi West 6.9 mph - N/A   Overcast
5:56 AM 51.1 °F 48.9 °F 92% 30.00 in 10.0 mi West 8.1 mph - N/A   Overcast
6:03 AM 51.8 °F 48.2 °F 88% 29.98 in 10.0 mi WSW 10.4 mph - N/A   Overcast
6:56 AM 51.1 °F 48.9 °F 92% 30.03 in 10.0 mi WSW 12.7 mph 19.6 mph N/A   Overcast
7:56 AM 53.1 °F 48.0 °F 83% 30.05 in 10.0 mi West 11.5 mph 23.0 mph N/A   Scattered Clouds
8:56 AM 55.9 °F 48.0 °F 75% 30.08 in 10.0 mi Variable 6.9 mph - N/A   Clear
9:56 AM 59.0 °F 46.0 °F 62% 30.09 in 10.0 mi West 10.4 mph 18.4 mph N/A   Clear
10:56 AM 60.1 °F 46.0 °F 60% 30.11 in 10.0 mi West 9.2 mph 19.6 mph N/A   Scattered Clouds
11:56 AM 63.0 °F 45.0 °F 52% 30.12 in 10.0 mi West 15.0 mph 24.2 mph N/A   Partly Cloudy
12:56 PM 64.9 °F 45.0 °F 48% 30.13 in 10.0 mi West 13.8 mph 19.6 mph N/A   Mostly Cloudy
1:56 PM 66.9 °F 44.1 °F 44% 30.12 in 10.0 mi Variable 6.9 mph 23.0 mph N/A   Scattered Clouds
2:56 PM 68.0 °F 46.9 °F 47% 30.12 in 10.0 mi West 13.8 mph 19.6 mph N/A   Mostly Cloudy
3:56 PM 69.1 °F 46.9 °F 45% 30.12 in 10.0 mi WSW 11.5 mph 18.4 mph N/A   Mostly Cloudy
4:56 PM 70.0 °F 48.0 °F 46% 30.10 in 10.0 mi West 9.2 mph - N/A   Scattered Clouds
5:56 PM 70.0 °F 46.9 °F 44% 30.08 in 10.0 mi SW 9.2 mph - N/A   Partly Cloudy
6:56 PM 68.0 °F 48.0 °F 49% 30.08 in 10.0 mi WSW 6.9 mph - N/A   Clear
7:56 PM 64.9 °F 48.0 °F 54% 30.08 in 10.0 mi SW 6.9 mph - N/A   Clear
8:56 PM 63.0 °F 46.9 °F 56% 30.09 in 10.0 mi SSW 5.8 mph - N/A   Clear
9:56 PM 60.1 °F 48.0 °F 64% 30.10 in 10.0 mi South 5.8 mph - N/A   Clear